FW6882 Weather Reports


Display with metric or nautical units.
time (UTC)temp
F
wind
direction
speed
MPH
gust
MPH
rain 1hr
in
rain 24hr
in
rain mn
in
humidity
%
barometer
mb
20210917121528 51 148 1.0 2.0 0.00 0.00 0.00 34 1009.8
20210917120022 52 145 0.0 2.0 0.00 0.00 0.00 32 1009.9
20210917114514 52 145 0.0 2.0 0.00 0.00 0.00 30 1009.7
20210917113017 52 145 1.0 2.0 0.00 0.00 0.00 30 1009.6
20210917111507 51 141 0.0 2.0 0.00 0.00 0.00 30 1009.7
20210917110005 52 141 1.0 2.0 0.00 0.00 0.00 32 1009.6
20210917104518 52 156 1.0 3.0 0.00 0.00 0.00 35 1009.7
20210917103214 52 156 0.0 3.0 0.00 0.00 0.00 33 1009.8
20210917101634 52 155 1.0 2.0 0.00 0.00 0.00 33 1009.7
20210917100031 52 161 0.0 3.0 0.00 0.00 0.00 30 1009.7
20210917094534 52 159 1.0 2.0 0.00 0.00 0.00 29 1009.7
20210917093108 52 162 0.0 2.0 0.00 0.00 0.00 28 1009.6
20210917091553 52 153 1.0 3.0 0.00 0.00 0.00 26 1009.7
20210917090045 53 167 1.0 2.0 0.00 0.00 0.00 26 1009.7
20210917084546 52 163 0.0 2.0 0.00 0.00 0.00 26 1009.8
20210917083110 52 151 1.0 2.0 0.00 0.00 0.00 27 1009.9
20210917081619 52 150 1.0 3.0 0.00 0.00 0.00 25 1009.9
20210917080133 53 166 1.0 2.0 0.00 0.00 0.00 25 1009.8
20210917074546 53 156 0.0 2.0 0.00 0.00 0.00 24 1009.8
20210917073030 53 155 0.0 2.0 0.00 0.00 0.00 23 1009.6
20210917071520 52 155 0.0 4.0 0.00 0.00 0.00 22 1009.6
20210917070022 51 179 1.0 4.0 0.00 0.00 0.00 20 1009.6
20210917064518 52 163 1.0 3.0 0.00 0.00 0.00 22 1009.6
20210917063008 51 158 0.0 2.0 0.00 0.00 0.00 24 1009.6
20210917061509 51 158 1.0 3.0 0.00 0.00 0.00 25 1009.5
20210917060114 50 157 2.0 3.0 0.00 0.00 0.00 25 1009.5
20210917054551 50 159 2.0 3.0 0.00 0.00 0.00 25 1009.4
20210917053006 51 157 1.0 2.0 0.00 0.00 0.00 22 1009.4
20210917050122 51 157 0.0 2.0 0.00 0.00 0.00 28 1009.5
20210917044606 52 157 1.0 2.0 0.00 0.00 0.00 30 1009.3
20210917041712 53 147 0.0 2.0 0.00 0.00 0.00 27 1009.3
20210917040109 53 147 1.0 2.0 0.00 0.00 0.00 28 1009.1
20210917034614 53 147 0.0 2.0 0.00 0.00 0.00 31 1009.0
20210917033103 54 147 0.0 2.0 0.00 0.00 0.00 24 1008.7
20210917031629 55 146 0.0 1.0 0.00 0.00 0.00 35 1008.3
20210917030039 55 146 0.0 1.0 0.00 0.00 0.00 36 1008.1
20210917024517 55 146 2.0 3.0 0.00 0.00 0.00 37 1007.9
20210917023002 57 139 0.0 2.0 0.00 0.00 0.00 36 1007.7
20210917021718 58 139 0.0 1.0 0.00 0.00 0.00 35 1007.6
20210917020135 59 139 0.0 1.0 0.00 0.00 0.00 34 1007.5
20210917014553 61 138 0.0 1.0 0.00 0.00 0.00 31 1007.3
20210917013117 63 138 0.0 2.0 0.00 0.00 0.00 32 1007.4
20210917011647 64 127 0.0 2.0 0.00 0.00 0.00 31 1007.5
20210917010043 67 155 0.0 2.0 0.00 0.00 0.00 29 1007.7
20210917004617 69 31 0.0 2.0 0.00 0.00 0.00 22 1007.8
20210917003132 71 6 0.0 3.0 0.00 0.00 0.00 22 1007.8
20210917001618 71 156 0.0 2.0 0.00 0.00 0.00 19 1007.9
20210917000132 71 39 0.0 2.0 0.00 0.00 0.00 22 1008.0
20210916234615 71 66 0.0 2.0 0.00 0.00 0.00 26 1008.0
20210916233109 71 179 0.0 5.0 0.00 0.00 0.00 17 1007.9
20210916231614 73 124 1.0 3.0 0.00 0.00 0.00 20 1007.9
20210916230212 73 95 0.0 4.0 0.00 0.00 0.00 18 1007.8
20210916224542 74 290 0.0 3.0 0.00 0.00 0.00 17 1007.8
20210916223027 74 77 0.0 5.0 0.00 0.00 0.00 20 1007.8
20210916221533 74 90 0.0 4.0 0.00 0.00 0.00 21 1007.8
20210916220030 74 68 1.0 5.0 0.00 0.00 0.00 18 1007.8
20210916214534 74 9 0.0 4.0 0.00 0.00 0.00 19 1008.0
20210916213014 74 89 0.0 5.0 0.00 0.00 0.00 25 1008.2
20210916211513 74 95 3.0 8.0 0.00 0.00 0.00 21 1008.2
20210916210043 75 48 1.0 9.0 0.00 0.00 0.00 19 1008.2
20210916204520 76 60 1.0 3.0 0.00 0.00 0.00 14 1008.4
20210916203008 76 309 2.0 6.0 0.00 0.00 0.00 16 1008.5
20210916201635 76 72 1.0 7.0 0.00 0.00 0.00 21 1008.6
20210916200221 76 77 1.0 9.0 0.00 0.00 0.00 15 1008.6
20210916194621 75 129 0.0 6.0 0.00 0.00 0.00 14 1008.7
20210916193149 76 355 1.0 5.0 0.00 0.00 0.00 17 1008.6
20210916191540 76 124 1.0 4.0 0.00 0.00 0.00 12 1008.6
20210916190029 76 60 1.0 6.0 0.00 0.00 0.00 19 1008.6
20210916184522 77 197 0.0 6.0 0.00 0.00 0.00 20 1008.7
20210916183009 76 72 0.0 6.0 0.00 0.00 0.00 15 1008.7
20210916181704 77 53 0.0 5.0 0.00 0.00 0.00 17 1008.7
20210916180131 76 2 2.0 6.0 0.00 0.00 0.00 19 1008.5
20210916174528 76 343 1.0 6.0 0.00 0.00 0.00 18 1008.8
20210916173029 76 63 0.0 6.0 0.00 0.00 0.00 18 1008.7
20210916171555 75 79 0.0 4.0 0.00 0.00 0.00 20 1008.9
20210916170105 74 4 1.0 5.0 0.00 0.00 0.00 22 1008.7
20210916164556 74 310 1.0 6.0 0.00 0.00 0.00 7 1008.7
20210916163105 72 307 1.0 5.0 0.00 0.00 0.00 13 1008.8
20210916161534 71 75 0.0 3.0 0.00 0.00 0.00 19 1008.8
20210916160033 67 162 0.0 1.0 0.00 0.00 0.00 20 1008.8
20210916154518 60 162 0.0 1.0 0.00 0.00 0.00 22 1008.7
20210916153012 56 162 0.0 0.0 0.00 0.00 0.00 24 1008.9
20210916151507 53 162 0.0 2.0 0.00 0.00 0.00 32 1008.9
20210916144751 48 160 2.0 3.0 0.00 0.00 0.00 35 1008.8
20210916143145 46 166 2.0 3.0 0.00 0.00 0.00 31 1008.7
20210916141600 45 165 3.0 4.0 0.00 0.00 0.00 29 1008.7
20210916140150 45 157 1.0 3.0 0.00 0.00 0.00 26 1008.5
20210916134608 45 162 0.0 4.0 0.00 0.00 0.00 25 1008.5
20210916133151 44 162 2.0 3.0 0.00 0.00 0.00 27 1008.3
20210916131547 44 155 2.0 3.0 0.00 0.00 0.00 26 1008.2
20210916130128 44 164 2.0 4.0 0.00 0.00 0.00 26 1008.2
20210916123020 44 157 1.0 3.0 0.00 0.00 0.00 26 1008.0